• Processing (Info)

  • MPEC 2006-F31 : 2006 FV

    The following Minor Planet Electronic Circular may be linked-to from your own Web pages, but must not otherwise be redistributed electronically.

    A form allowing access to any MPEC is at the bottom of this page.


    Read MPEC 2006-F30 Read MPEC 2006-F32


    M.P.E.C. 2006-F31                                Issued 2006 Mar. 24, 22:33 UT
    
         The Minor Planet Electronic Circulars contain information on unusual
             minor planets and routine data on comets.  They are published
       on behalf of Commission 20 of the International Astronomical Union by the
              Minor Planet Center, Smithsonian Astrophysical Observatory,
                              Cambridge, MA 02138, U.S.A.
    
                      Supported in part by the Brinson Foundation
                      Supported in part by the TABASGO Foundation
                 Prepared using the Tamkin Foundation Computer Network
    
                                  MPC@CFA.HARVARD.EDU
              URL http://cfa-www.harvard.edu/iau/mpc.html  ISSN 1523-6714
    
                                        2006 FV
    
    Observations:
         K06F00V  C2006 03 23.99757 12 05 15.57 +01 51 51.6                 EF031621
         K06F00V  C2006 03 24.00012 12 05 15.74 +01 52 01.0                 EF031621
         K06F00V  C2006 03 24.00522 12 05 16.13 +01 52 20.6                 EF031621
         K06F00V  C2006 03 24.01031 12 05 16.50 +01 52 39.3                 EF031621
         K06F00V  C2006 03 24.01286 12 05 16.69 +01 52 49.3                 EF031621
         K06F00V  C2006 03 24.01796 12 05 17.06 +01 53 08.1          19   R EF031621
         K06F00V* C2006 03 24.24746 12 05 39.67 +02 07 46.5          18.6 R EF031699
         K06F00V  C2006 03 24.26931 12 05 41.13 +02 09 07.6                 EF031699
         K06F00V  C2006 03 24.29122 12 05 42.58 +02 10 28.5                 EF031699
         K06F00V  C2006 03 24.31313 12 05 44.14 +02 11 52.2                 EF031699
         K06F00V  C2006 03 24.84268 12 06 33.70 +02 44 23.3          18.4 R EF031J87
         K06F00V  C2006 03 24.85010 12 06 34.26 +02 44 51.1          19.0 R EF031J87
         K06F00V  C2006 03 24.85753 12 06 34.84 +02 45 18.2          18.6 R EF031J87
    
    Observer details:
    621 Bergisch Gladbach.  Observer W. Bickel.  0.60-m f/5.2 reflector + CCD.
    699 Lowell Observatory-LONEOS.  Observer M. E. Van Ness.  0.59-m LONEOS
        Schmidt + CCD.
    J87 La Canada.  Observer J. Lacruz.  0.30-m Schmidt-Cassegrain + CCD.
    
    Orbital elements:
    2006 FV                                                  Earth MOID = 0.1059 AU
    Epoch 2006 Mar. 6.0 TT = JDT 2453800.5                  MPC
    M  23.41201              (2000.0)            P               Q
    n   0.62305019     Peri.  308.28992     -0.63477087     -0.77269387
    a   1.3576486      Node   181.12814     +0.74978287     -0.61494334
    e   0.2262596      Incl.    9.30199     +0.18679289     -0.15744486
    P   1.58           H   22.6           G   0.15           U   9
    Residuals in seconds of arc
    060323 621  0.0   0.3+    060324 621  0.1-  0.4-    060324 J87  0.1-  0.3-
    060324 621  0.2-  0.0     060324 699  0.7+  0.7+    060324 J87  0.3-  0.3+
    060324 621  0.0   0.3+    060324 699  0.1+  0.1-    060324 J87  0.1-  0.1+
    060324 621  0.1-  0.2-    060324 699  0.4-  1.3-
    060324 621  0.0   0.1+    060324 699  0.8+  0.5+
    
    Ephemeris:
    2006 FV                  a,e,i = 1.36, 0.23, 9                   q = 1.0505
    Date    TT    R. A. (2000) Decl.     Delta      r     Elong.  Phase     V
    2006 03 16    11 51.27   -07 47.9    0.121    1.114   170.0     8.9    18.9
    2006 03 26    12 08.17   +03 53.8    0.144    1.141   173.5     5.7    19.1
    2006 04 05    12 20.32   +11 28.2    0.178    1.170   160.6    16.5    20.1
    2006 04 15    12 30.38   +15 29.2    0.222    1.202   150.6    24.2    20.9
    2006 04 25    12 39.89   +17 01.6    0.274    1.235   142.7    29.6    21.5
    
    Timothy B. Spahr             (C) Copyright 2006 MPC           M.P.E.C. 2006-F31
    

    Read MPEC 2006-F30 Read MPEC 2006-F32


    MPEC number:

    Enter an MPEC number in one of the following forms:

    • 1997-B01 (the full form)
    • J97B01 (the packed version of the full form)
    • B01 (the abbreviated form)